58.9°F
Current conditions from King Hill
Updated every 5 minutes
 
  Tuesday July 29, 2014

Station Historical Data
Daily Summary for March 1, 2011 Units:  English    Metric   Both
« Previous Day
Next Day »
Daily Weekly Monthly Yearly Custom
  High: Low: Average:
Temperature: 30.0 °F 14.7 °F 22.7 °F
Dew Point: 18.8 °F 4.0 °F 9.3 °F
Humidity: 74% 40% 57%
Wind Speed: 13.0mph 1.0mph 5.4mph
Wind Gust: 26.0mph - -
Wind- - West
Pressure: 30.26 in 29.87 in -
Precipitation: 0.00 in    
Historical Graphs
 
 
Tabular Data for March 1, 2011
Time Temperature Dew Point Pressure Wind Wind Speed Wind Gust Humidity Daily Rainfall
00:04 25.9 °F 18.8 °F 29.87 in NNW 9.0 mph 18.0 mph 74% 0.00 in
00:09 25.7 °F 18.6 °F 29.88 in NW 8.0 mph 18.0 mph 74% 0.00 in
00:14 25.6 °F 18.2 °F 29.88 in NNW 7.0 mph 18.0 mph 73% 0.00 in
00:19 25.4 °F 18.3 °F 29.88 in NW 7.0 mph 17.0 mph 74% 0.00 in
00:24 25.1 °F 17.7 °F 29.89 in NNW 7.0 mph 16.0 mph 73% 0.00 in
00:29 25.0 °F 17.6 °F 29.89 in NNW 9.0 mph 19.0 mph 73% 0.00 in
00:34 25.1 °F 17.0 °F 29.89 in NNW 10.0 mph 25.0 mph 71% 0.00 in
00:44 24.9 °F 16.8 °F 29.90 in NNW 9.0 mph 23.0 mph 71% 0.00 in
00:49 24.8 °F 16.7 °F 29.90 in NW 12.0 mph 24.0 mph 71% 0.00 in
00:54 24.7 °F 17.0 °F 29.90 in NNW 10.0 mph 24.0 mph 72% 0.00 in
01:04 24.4 °F 16.7 °F 29.92 in NNW 9.0 mph 18.0 mph 72% 0.00 in
01:09 24.4 °F 17.0 °F 29.92 in NW 4.0 mph 19.0 mph 73% 0.00 in
01:14 24.3 °F 16.6 °F 29.92 in NNW 9.0 mph 19.0 mph 72% 0.00 in
01:19 24.3 °F 16.3 °F 29.93 in NNW 10.0 mph 19.0 mph 71% 0.00 in
01:24 24.2 °F 15.8 °F 29.93 in NNW 7.0 mph 19.0 mph 70% 0.00 in
01:29 24.0 °F 15.3 °F 29.94 in NW 9.0 mph 18.0 mph 69% 0.00 in
01:34 23.9 °F 15.2 °F 29.94 in NW 8.0 mph 19.0 mph 69% 0.00 in
01:39 23.9 °F 15.2 °F 29.94 in NW 8.0 mph 19.0 mph 69% 0.00 in
01:44 23.8 °F 15.4 °F 29.95 in NW 7.0 mph 17.0 mph 70% 0.00 in
01:49 23.6 °F 15.6 °F 29.95 in NW 5.0 mph 13.0 mph 71% 0.00 in
01:54 23.6 °F 15.9 °F 29.96 in NW 4.0 mph 17.0 mph 72% 0.00 in
01:59 23.4 °F 15.7 °F 29.97 in NNW 12.0 mph 19.0 mph 72% 0.00 in
02:04 23.3 °F 15.3 °F 29.97 in NNW 8.0 mph 19.0 mph 71% 0.00 in
02:09 23.1 °F 14.8 °F 29.97 in NW 9.0 mph 22.0 mph 70% 0.00 in
02:14 22.9 °F 14.6 °F 29.98 in NW 6.0 mph 22.0 mph 70% 0.00 in
02:19 22.7 °F 14.1 °F 29.98 in NW 7.0 mph 21.0 mph 69% 0.00 in
02:24 22.5 °F 13.9 °F 29.98 in NW 10.0 mph 21.0 mph 69% 0.00 in
02:29 22.4 °F 14.1 °F 29.98 in NW 10.0 mph 19.0 mph 70% 0.00 in
02:34 22.2 °F 13.9 °F 29.99 in NW 7.0 mph 19.0 mph 70% 0.00 in
02:39 22.0 °F 13.7 °F 29.99 in NNW 8.0 mph 18.0 mph 70% 0.00 in
02:44 21.9 °F 13.9 °F 29.99 in NNW 5.0 mph 17.0 mph 71% 0.00 in
02:49 21.7 °F 13.7 °F 30.00 in NW 10.0 mph 16.0 mph 71% 0.00 in
02:54 21.5 °F 13.2 °F 30.00 in NW 8.0 mph 18.0 mph 70% 0.00 in
02:59 21.1 °F 12.8 °F 30.00 in NW 5.0 mph 22.0 mph 70% 0.00 in
03:04 20.8 °F 12.9 °F 30.00 in NNW 5.0 mph 22.0 mph 71% 0.00 in
03:09 20.5 °F 12.3 °F 30.01 in NNW 5.0 mph 14.0 mph 70% 0.00 in
03:14 20.4 °F 12.2 °F 30.01 in NW 11.0 mph 21.0 mph 70% 0.00 in
03:19 20.2 °F 12.0 °F 30.01 in NNW 8.0 mph 21.0 mph 70% 0.00 in
03:24 20.1 °F 11.9 °F 30.02 in NNW 5.0 mph 18.0 mph 70% 0.00 in
03:29 19.9 °F 11.7 °F 30.01 in NW 7.0 mph 19.0 mph 70% 0.00 in
03:34 19.7 °F 11.5 °F 30.02 in NW 9.0 mph 19.0 mph 70% 0.00 in
03:39 19.7 °F 11.5 °F 30.02 in NW 7.0 mph 18.0 mph 70% 0.00 in
03:44 19.5 °F 11.3 °F 30.03 in NW 8.0 mph 18.0 mph 70% 0.00 in
03:49 19.4 °F 11.2 °F 30.03 in NW 5.0 mph 18.0 mph 70% 0.00 in
03:54 19.3 °F 11.1 °F 30.04 in NW 6.0 mph 17.0 mph 70% 0.00 in
03:59 19.2 °F 11.0 °F 30.04 in NW 6.0 mph 17.0 mph 70% 0.00 in
04:04 19.1 °F 10.9 °F 30.04 in NW 6.0 mph 17.0 mph 70% 0.00 in
04:09 19.0 °F 10.8 °F 30.05 in NW 3.0 mph 16.0 mph 70% 0.00 in
04:14 18.9 °F 10.7 °F 30.05 in NW 6.0 mph 16.0 mph 70% 0.00 in
04:19 18.8 °F 10.6 °F 30.06 in NNW 6.0 mph 11.0 mph 70% 0.00 in
04:24 18.7 °F 10.5 °F 30.05 in NNW 6.0 mph 12.0 mph 70% 0.00 in
04:29 18.6 °F 10.4 °F 30.06 in NW 5.0 mph 15.0 mph 70% 0.00 in
04:34 18.6 °F 10.8 °F 30.06 in NNW 3.0 mph 15.0 mph 71% 0.00 in
04:39 18.5 °F 10.7 °F 30.06 in NW 4.0 mph 9.0 mph 71% 0.00 in
04:44 18.4 °F 10.6 °F 30.07 in NW 6.0 mph 12.0 mph 71% 0.00 in
04:49 18.3 °F 10.5 °F 30.07 in NW 6.0 mph 12.0 mph 71% 0.00 in
04:54 18.3 °F 10.2 °F 30.07 in NW 6.0 mph 15.0 mph 70% 0.00 in
04:59 18.2 °F 10.4 °F 30.08 in NW 5.0 mph 15.0 mph 71% 0.00 in
05:04 18.1 °F 10.0 °F 30.08 in NW 7.0 mph 15.0 mph 70% 0.00 in
05:09 18.0 °F 10.2 °F 30.08 in NW 6.0 mph 15.0 mph 71% 0.00 in
05:14 17.9 °F 10.1 °F 30.09 in NW 6.0 mph 10.0 mph 71% 0.00 in
05:19 17.8 °F 10.0 °F 30.09 in NW 5.0 mph 11.0 mph 71% 0.00 in
05:24 17.7 °F 9.9 °F 30.10 in NW 7.0 mph 16.0 mph 71% 0.00 in
05:29 17.6 °F 9.8 °F 30.10 in NW 9.0 mph 17.0 mph 71% 0.00 in
05:34 17.4 °F 9.6 °F 30.11 in NNW 7.0 mph 18.0 mph 71% 0.00 in
05:39 17.2 °F 9.4 °F 30.11 in NW 8.0 mph 18.0 mph 71% 0.00 in
05:44 17.0 °F 9.2 °F 30.12 in NNW 9.0 mph 18.0 mph 71% 0.00 in
05:49 16.8 °F 9.3 °F 30.12 in NNW 8.0 mph 18.0 mph 72% 0.00 in
05:54 16.6 °F 9.1 °F 30.13 in NNW 7.0 mph 15.0 mph 72% 0.00 in
05:59 16.6 °F 8.8 °F 30.13 in NW 12.0 mph 21.0 mph 71% 0.00 in
06:04 16.5 °F 8.7 °F 30.13 in NNW 9.0 mph 22.0 mph 71% 0.00 in
06:09 16.3 °F 8.5 °F 30.14 in NNW 6.0 mph 22.0 mph 71% 0.00 in
06:14 16.1 °F 8.4 °F 30.14 in NNW 6.0 mph 15.0 mph 71% 0.00 in
06:19 16.0 °F 8.3 °F 30.15 in NNW 7.0 mph 13.0 mph 71% 0.00 in
06:24 15.9 °F 8.2 °F 30.15 in NW 6.0 mph 14.0 mph 71% 0.00 in
06:29 15.7 °F 8.0 °F 30.16 in NNW 4.0 mph 14.0 mph 71% 0.00 in
06:34 15.5 °F 7.8 °F 30.16 in NW 5.0 mph 13.0 mph 71% 0.00 in
06:39 15.4 °F 8.0 °F 30.17 in NW 2.0 mph 11.0 mph 72% 0.00 in
06:44 15.2 °F 7.8 °F 30.17 in NNW 1.0 mph 9.0 mph 72% 0.00 in
06:49 15.0 °F 7.6 °F 30.17 in NNW 2.0 mph 13.0 mph 72% 0.00 in
06:54 15.0 °F 7.3 °F 30.18 in NNW 6.0 mph 13.0 mph 71% 0.00 in
06:59 15.0 °F 7.3 °F 30.18 in NW 3.0 mph 13.0 mph 71% 0.00 in
07:04 14.9 °F 7.2 °F 30.19 in NW 6.0 mph 12.0 mph 71% 0.00 in
07:09 14.8 °F 7.1 °F 30.19 in NW 7.0 mph 12.0 mph 71% 0.00 in
07:14 14.8 °F 7.1 °F 30.19 in NW 6.0 mph 12.0 mph 71% 0.00 in
07:19 14.8 °F 6.8 °F 30.19 in NW 3.0 mph 12.0 mph 70% 0.00 in
07:24 14.8 °F 7.1 °F 30.19 in NW 6.0 mph 14.0 mph 71% 0.00 in
07:29 14.8 °F 6.8 °F 30.20 in NNW 2.0 mph 14.0 mph 70% 0.00 in
07:34 14.7 °F 7.0 °F 30.20 in NW 4.0 mph 13.0 mph 71% 0.00 in
07:39 14.9 °F 6.9 °F 30.20 in WNW 4.0 mph 13.0 mph 70% 0.00 in
07:44 15.0 °F 7.0 °F 30.21 in NW 4.0 mph 10.0 mph 70% 0.00 in
07:49 15.1 °F 6.8 °F 30.21 in NW 7.0 mph 10.0 mph 69% 0.00 in
07:54 15.2 °F 6.9 °F 30.22 in North 2.0 mph 10.0 mph 69% 0.00 in
07:59 15.2 °F 6.5 °F 30.22 in NNW 2.0 mph 8.0 mph 68% 0.00 in
08:04 15.2 °F 6.5 °F 30.23 in NW 3.0 mph 8.0 mph 68% 0.00 in
08:09 15.4 °F 6.7 °F 30.23 in NNW 5.0 mph 11.0 mph 68% 0.00 in
08:14 15.6 °F 6.9 °F 30.23 in NW 3.0 mph 11.0 mph 68% 0.00 in
08:19 16.0 °F 7.0 °F 30.24 in NW 3.0 mph 7.0 mph 67% 0.00 in
08:24 16.5 °F 7.5 °F 30.24 in NW 2.0 mph 6.0 mph 67% 0.00 in
08:29 16.9 °F 7.2 °F 30.24 in NNW 3.0 mph 13.0 mph 65% 0.00 in
08:34 17.4 °F 7.3 °F 30.24 in NW 3.0 mph 13.0 mph 64% 0.00 in
08:39 17.7 °F 7.2 °F 30.24 in NNW 5.0 mph 10.0 mph 63% 0.00 in
08:44 18.0 °F 7.5 °F 30.24 in NW 4.0 mph 10.0 mph 63% 0.00 in
08:49 18.3 °F 7.8 °F 30.24 in NNW 2.0 mph 9.0 mph 63% 0.00 in
08:54 18.4 °F 6.8 °F 30.24 in NW 7.0 mph 12.0 mph 60% 0.00 in
08:59 18.3 °F 7.1 °F 30.23 in NW 7.0 mph 13.0 mph 61% 0.00 in
09:04 18.5 °F 7.3 °F 30.23 in NW 7.0 mph 13.0 mph 61% 0.00 in
09:09 18.5 °F 6.9 °F 30.24 in NW 5.0 mph 14.0 mph 60% 0.00 in
09:14 18.8 °F 6.5 °F 30.23 in NW 8.0 mph 19.0 mph 58% 0.00 in
09:19 18.6 °F 6.3 °F 30.23 in WNW 7.0 mph 19.0 mph 58% 0.00 in
09:24 18.6 °F 5.9 °F 30.23 in WNW 7.0 mph 12.0 mph 57% 0.00 in
09:29 18.8 °F 6.1 °F 30.24 in NW 5.0 mph 13.0 mph 57% 0.00 in
09:34 19.4 °F 7.0 °F 30.24 in NNW 2.0 mph 13.0 mph 58% 0.00 in
09:39 19.5 °F 6.7 °F 30.24 in WNW 3.0 mph 11.0 mph 57% 0.00 in
09:44 19.6 °F 6.0 °F 30.24 in WNW 6.0 mph 11.0 mph 55% 0.00 in
09:49 19.9 °F 6.7 °F 30.24 in NW 1.0 mph 11.0 mph 56% 0.00 in
09:54 20.3 °F 7.1 °F 30.24 in NNW 3.0 mph 7.0 mph 56% 0.00 in
09:59 20.2 °F 5.8 °F 30.24 in NW 5.0 mph 7.0 mph 53% 0.00 in
10:04 20.3 °F 6.3 °F 30.24 in NNW 4.0 mph 8.0 mph 54% 0.00 in
10:09 20.6 °F 6.2 °F 30.24 in NW 3.0 mph 8.0 mph 53% 0.00 in
10:14 20.4 °F 5.6 °F 30.25 in NW 5.0 mph 10.0 mph 52% 0.00 in
10:19 20.4 °F 6.0 °F 30.25 in NW 3.0 mph 10.0 mph 53% 0.00 in
10:24 20.7 °F 6.7 °F 30.25 in NNW 3.0 mph 9.0 mph 54% 0.00 in
10:29 21.3 °F 6.8 °F 30.25 in NW 4.0 mph 9.0 mph 53% 0.00 in
10:34 21.5 °F 7.0 °F 30.25 in NW 4.0 mph 9.0 mph 53% 0.00 in
10:39 21.6 °F 7.1 °F 30.25 in NW 4.0 mph 8.0 mph 53% 0.00 in
10:44 21.9 °F 7.8 °F 30.25 in NNW 4.0 mph 11.0 mph 54% 0.00 in
10:49 22.3 °F 7.3 °F 30.26 in NNW 4.0 mph 15.0 mph 52% 0.00 in
10:54 22.2 °F 7.2 °F 30.26 in NW 3.0 mph 15.0 mph 52% 0.00 in
10:59 21.9 °F 6.1 °F 30.25 in NW 3.0 mph 10.0 mph 50% 0.00 in
11:04 22.1 °F 7.6 °F 30.25 in NNW 3.0 mph 9.0 mph 53% 0.00 in
11:09 22.1 °F 7.1 °F 30.26 in NW 5.0 mph 10.0 mph 52% 0.00 in
11:14 21.9 °F 7.0 °F 30.25 in West 3.0 mph 10.0 mph 52% 0.00 in
11:19 21.9 °F 6.5 °F 30.25 in NNW 1.0 mph 10.0 mph 51% 0.00 in
11:24 22.0 °F 5.7 °F 30.25 in West 4.0 mph 10.0 mph 49% 0.00 in
11:29 22.1 °F 6.3 °F 30.25 in WNW 4.0 mph 9.0 mph 50% 0.00 in
11:34 22.7 °F 7.7 °F 30.24 in NW 1.0 mph 7.0 mph 52% 0.00 in
11:39 23.3 °F 6.9 °F 30.24 in NW 3.0 mph 8.0 mph 49% 0.00 in
11:44 23.8 °F 7.4 °F 30.24 in North 1.0 mph 8.0 mph 49% 0.00 in
11:49 23.9 °F 7.0 °F 30.24 in WNW 4.0 mph 8.0 mph 48% 0.00 in
11:54 23.7 °F 6.4 °F 30.24 in Calm   8.0 mph 47% 0.00 in
11:59 24.2 °F 6.4 °F 30.25 in NW 4.0 mph 7.0 mph 46% 0.00 in
12:04 23.7 °F 6.9 °F 30.24 in NW 1.0 mph 8.0 mph 48% 0.00 in
12:09 23.4 °F 6.1 °F 30.25 in WNW 3.0 mph 8.0 mph 47% 0.00 in
12:14 24.3 °F 7.9 °F 30.25 in North 3.0 mph 8.0 mph 49% 0.00 in
12:19 24.7 °F 6.8 °F 30.24 in NNW 1.0 mph 7.0 mph 46% 0.00 in
12:24 24.7 °F 6.4 °F 30.24 in WNW 2.0 mph 7.0 mph 45% 0.00 in
12:29 23.9 °F 6.6 °F 30.24 in WNW 5.0 mph 9.0 mph 47% 0.00 in
12:34 23.8 °F 7.9 °F 30.24 in NW 7.0 mph 12.0 mph 50% 0.00 in
12:44 23.4 °F 5.7 °F 30.23 in West 1.0 mph 9.0 mph 46% 0.00 in
12:49 24.3 °F 7.9 °F 30.23 in Calm   8.0 mph 49% 0.00 in
12:54 25.0 °F 6.6 °F 30.23 in WSW 1.0 mph 4.0 mph 45% 0.00 in
12:59 24.5 °F 5.7 °F 30.24 in WNW 5.0 mph 9.0 mph 44% 0.00 in
13:04 24.4 °F 6.1 °F 30.23 in WNW 3.0 mph 9.0 mph 45% 0.00 in
13:09 24.3 °F 4.0 °F 30.23 in NW 3.0 mph 8.0 mph 41% 0.00 in
13:14 24.8 °F 5.5 °F 30.23 in WNW 2.0 mph 7.0 mph 43% 0.00 in
13:19 25.1 °F 4.2 °F 30.23 in WNW 3.0 mph 6.0 mph 40% 0.00 in
13:24 24.9 °F 4.5 °F 30.23 in WNW 2.0 mph 5.0 mph 41% 0.00 in
13:29 25.6 °F 5.7 °F 30.22 in Calm   5.0 mph 42% 0.00 in
13:34 26.0 °F 6.0 °F 30.22 in NW 2.0 mph 6.0 mph 42% 0.00 in
13:39 26.4 °F 6.9 °F 30.23 in SW 2.0 mph 6.0 mph 43% 0.00 in
13:44 26.6 °F 7.1 °F 30.22 in Calm   4.0 mph 43% 0.00 in
13:49 27.0 °F 6.9 °F 30.23 in West 2.0 mph 4.0 mph 42% 0.00 in
13:54 27.3 °F 6.1 °F 30.23 in NNW 3.0 mph 6.0 mph 40% 0.00 in
13:59 27.5 °F 6.9 °F 30.23 in WNW 3.0 mph 6.0 mph 41% 0.00 in
14:04 27.7 °F 7.6 °F 30.22 in NW 2.0 mph 8.0 mph 42% 0.00 in
14:09 27.1 °F 6.0 °F 30.22 in WNW 1.0 mph 8.0 mph 40% 0.00 in
14:14 27.0 °F 5.9 °F 30.22 in WNW 1.0 mph 7.0 mph 40% 0.00 in
14:19 27.2 °F 7.1 °F 30.22 in WNW 1.0 mph 3.0 mph 42% 0.00 in
14:24 26.9 °F 6.9 °F 30.21 in SSW 1.0 mph 5.0 mph 42% 0.00 in
14:29 27.5 °F 6.3 °F 30.20 in East 1.0 mph 5.0 mph 40% 0.00 in
14:34 28.0 °F 7.9 °F 30.20 in Calm   3.0 mph 42% 0.00 in
14:39 28.4 °F 9.3 °F 30.20 in Calm   3.0 mph 44% 0.00 in
14:44 28.9 °F 9.2 °F 30.20 in Calm   4.0 mph 43% 0.00 in
14:49 29.0 °F 7.7 °F 30.20 in Calm   4.0 mph 40% 0.00 in
14:54 29.2 °F 8.9 °F 30.19 in SSW 3.0 mph 7.0 mph 42% 0.00 in
14:59 28.7 °F 9.5 °F 30.19 in South 1.0 mph 7.0 mph 44% 0.00 in
15:04 29.0 °F 8.8 °F 30.19 in Calm   6.0 mph 42% 0.00 in
15:09 29.5 °F 8.1 °F 30.19 in WSW 3.0 mph 5.0 mph 40% 0.00 in
15:14 29.0 °F 8.2 °F 30.19 in Calm   6.0 mph 41% 0.00 in
15:19 29.3 °F 9.6 °F 30.19 in WSW 1.0 mph 6.0 mph 43% 0.00 in
15:24 29.5 °F 9.2 °F 30.18 in Calm   4.0 mph 42% 0.00 in
15:29 30.0 °F 9.1 °F 30.19 in WSW 2.0 mph 5.0 mph 41% 0.00 in
15:34 29.7 °F 8.9 °F 30.19 in WSW 1.0 mph 5.0 mph 41% 0.00 in
15:39 29.7 °F 9.4 °F 30.18 in WSW 1.0 mph 4.0 mph 42% 0.00 in
15:44 29.7 °F 8.9 °F 30.19 in WSW 3.0 mph 4.0 mph 41% 0.00 in
15:49 29.4 °F 8.6 °F 30.18 in WSW 2.0 mph 5.0 mph 41% 0.00 in
15:54 29.2 °F 9.5 °F 30.18 in SW 4.0 mph 6.0 mph 43% 0.00 in
15:59 28.8 °F 8.6 °F 30.18 in SW 4.0 mph 7.0 mph 42% 0.00 in
16:04 28.7 °F 9.5 °F 30.18 in SSW 3.0 mph 9.0 mph 44% 0.00 in
16:09 28.4 °F 9.8 °F 30.18 in SW 3.0 mph 10.0 mph 45% 0.00 in
16:14 28.3 °F 9.2 °F 30.17 in SSW 4.0 mph 10.0 mph 44% 0.00 in
16:19 28.2 °F 8.6 °F 30.17 in SSW 4.0 mph 8.0 mph 43% 0.00 in
16:24 28.2 °F 9.1 °F 30.17 in SW 4.0 mph 8.0 mph 44% 0.00 in
16:29 28.0 °F 8.4 °F 30.17 in SSW 5.0 mph 8.0 mph 43% 0.00 in
16:34 27.8 °F 7.7 °F 30.17 in SSW 4.0 mph 8.0 mph 42% 0.00 in
16:39 27.8 °F 9.2 °F 30.17 in SSW 2.0 mph 8.0 mph 45% 0.00 in
16:44 27.8 °F 9.2 °F 30.17 in SSW 4.0 mph 8.0 mph 45% 0.00 in
16:49 27.6 °F 8.5 °F 30.17 in SSW 4.0 mph 7.0 mph 44% 0.00 in
16:54 27.4 °F 7.8 °F 30.16 in SSW 4.0 mph 9.0 mph 43% 0.00 in
16:59 27.2 °F 8.7 °F 30.17 in SSW 3.0 mph 9.0 mph 45% 0.00 in
17:04 26.9 °F 8.4 °F 30.16 in SSW 3.0 mph 7.0 mph 45% 0.00 in
17:09 26.6 °F 8.6 °F 30.17 in SW 2.0 mph 6.0 mph 46% 0.00 in
17:14 26.3 °F 8.8 °F 30.17 in SW 2.0 mph 6.0 mph 47% 0.00 in
17:19 26.0 °F 8.5 °F 30.17 in SW 2.0 mph 6.0 mph 47% 0.00 in
17:24 25.6 °F 9.1 °F 30.17 in Calm   5.0 mph 49% 0.00 in
17:29 25.2 °F 9.2 °F 30.17 in Calm   4.0 mph 50% 0.00 in
17:34 24.9 °F 8.9 °F 30.17 in Calm   2.0 mph 50% 0.00 in
17:39 24.5 °F 9.4 °F 30.16 in Calm   2.0 mph 52% 0.00 in
17:49 23.6 °F 9.0 °F 30.17 in SW 1.0 mph 4.0 mph 53% 0.00 in
17:54 23.3 °F 8.7 °F 30.16 in SW 2.0 mph 4.0 mph 53% 0.00 in
17:59 23.2 °F 8.6 °F 30.16 in SW 1.0 mph 4.0 mph 53% 0.00 in
18:04 23.2 °F 8.6 °F 30.16 in SSW 1.0 mph 5.0 mph 53% 0.00 in
18:09 23.1 °F 8.1 °F 30.16 in SSW 1.0 mph 5.0 mph 52% 0.00 in
18:14 23.1 °F 8.5 °F 30.16 in SSW 2.0 mph 5.0 mph 53% 0.00 in
18:19 23.0 °F 8.4 °F 30.15 in SSW 1.0 mph 5.0 mph 53% 0.00 in
18:24 22.8 °F 8.2 °F 30.15 in SSW 2.0 mph 6.0 mph 53% 0.00 in
18:29 22.7 °F 8.1 °F 30.15 in SSW 2.0 mph 6.0 mph 53% 0.00 in
18:34 22.6 °F 8.4 °F 30.14 in SSW 2.0 mph 6.0 mph 54% 0.00 in
18:39 22.5 °F 8.4 °F 30.15 in SSW 2.0 mph 6.0 mph 54% 0.00 in
18:44 22.7 °F 7.7 °F 30.14 in SSW 5.0 mph 8.0 mph 52% 0.00 in
18:49 22.8 °F 7.8 °F 30.14 in SSW 3.0 mph 8.0 mph 52% 0.00 in
18:54 22.8 °F 7.8 °F 30.14 in SSW 2.0 mph 8.0 mph 52% 0.00 in
18:59 23.0 °F 8.0 °F 30.14 in SSW 2.0 mph 9.0 mph 52% 0.00 in
19:04 23.0 °F 7.6 °F 30.14 in SSW 4.0 mph 9.0 mph 51% 0.00 in
19:09 23.0 °F 7.6 °F 30.13 in SSW 2.0 mph 7.0 mph 51% 0.00 in
19:14 23.1 °F 7.6 °F 30.13 in SSW 5.0 mph 9.0 mph 51% 0.00 in
19:19 23.4 °F 7.9 °F 30.13 in SSW 5.0 mph 10.0 mph 51% 0.00 in
19:24 23.3 °F 8.3 °F 30.13 in SSW 4.0 mph 10.0 mph 52% 0.00 in
19:29 23.4 °F 7.9 °F 30.12 in SSW 5.0 mph 10.0 mph 51% 0.00 in
19:34 23.6 °F 8.1 °F 30.12 in SSW 6.0 mph 10.0 mph 51% 0.00 in
19:39 23.8 °F 8.7 °F 30.12 in SSW 5.0 mph 12.0 mph 52% 0.00 in
19:44 23.8 °F 8.7 °F 30.11 in SSW 5.0 mph 12.0 mph 52% 0.00 in
19:49 23.9 °F 8.8 °F 30.11 in SSW 7.0 mph 12.0 mph 52% 0.00 in
19:54 24.1 °F 9.0 °F 30.11 in SSW 6.0 mph 15.0 mph 52% 0.00 in
19:59 24.3 °F 9.2 °F 30.11 in SSW 6.0 mph 15.0 mph 52% 0.00 in
20:04 24.4 °F 9.3 °F 30.10 in SSW 6.0 mph 14.0 mph 52% 0.00 in
20:09 24.5 °F 9.8 °F 30.10 in SSW 4.0 mph 11.0 mph 53% 0.00 in
20:14 24.5 °F 9.4 °F 30.10 in SSW 6.0 mph 14.0 mph 52% 0.00 in
20:19 24.6 °F 9.5 °F 30.10 in SSW 7.0 mph 14.0 mph 52% 0.00 in
20:24 24.5 °F 9.8 °F 30.10 in SSW 7.0 mph 14.0 mph 53% 0.00 in
20:29 24.5 °F 9.8 °F 30.10 in SSW 6.0 mph 14.0 mph 53% 0.00 in
20:34 24.3 °F 9.6 °F 30.10 in SW 7.0 mph 12.0 mph 53% 0.00 in
20:39 24.3 °F 9.6 °F 30.09 in SSW 6.0 mph 17.0 mph 53% 0.00 in
20:44 24.4 °F 9.7 °F 30.09 in SSW 7.0 mph 17.0 mph 53% 0.00 in
20:49 24.6 °F 9.9 °F 30.09 in SSW 7.0 mph 15.0 mph 53% 0.00 in
20:54 24.7 °F 10.4 °F 30.09 in SSW 7.0 mph 15.0 mph 54% 0.00 in
20:59 24.7 °F 10.4 °F 30.08 in SSW 8.0 mph 14.0 mph 54% 0.00 in
21:04 24.7 °F 10.4 °F 30.08 in SSW 7.0 mph 17.0 mph 54% 0.00 in
21:09 24.8 °F 10.5 °F 30.08 in SSW 7.0 mph 17.0 mph 54% 0.00 in
21:14 24.9 °F 10.6 °F 30.08 in SSW 7.0 mph 16.0 mph 54% 0.00 in
21:19 25.2 °F 10.9 °F 30.07 in SSW 11.0 mph 18.0 mph 54% 0.00 in
21:24 25.1 °F 10.8 °F 30.07 in SSW 9.0 mph 18.0 mph 54% 0.00 in
21:29 25.2 °F 10.9 °F 30.06 in SSW 10.0 mph 17.0 mph 54% 0.00 in
21:35 25.2 °F 10.9 °F 30.06 in SW 9.0 mph 16.0 mph 54% 0.00 in
21:44 25.2 °F 10.9 °F 30.06 in SSW 9.0 mph 17.0 mph 54% 0.00 in
21:49 25.2 °F 10.9 °F 30.06 in SSW 9.0 mph 18.0 mph 54% 0.00 in
21:54 25.2 °F 10.9 °F 30.05 in SSW 8.0 mph 18.0 mph 54% 0.00 in
21:59 25.1 °F 10.8 °F 30.05 in SSW 8.0 mph 15.0 mph 54% 0.00 in
22:04 25.1 °F 10.8 °F 30.04 in SSW 8.0 mph 21.0 mph 54% 0.00 in
22:09 25.2 °F 10.5 °F 30.03 in SSW 10.0 mph 21.0 mph 53% 0.00 in
22:14 25.3 °F 10.6 °F 30.03 in SSW 7.0 mph 15.0 mph 53% 0.00 in
22:19 25.5 °F 10.3 °F 30.02 in SSW 10.0 mph 17.0 mph 52% 0.00 in
22:24 25.7 °F 10.1 °F 30.02 in SSW 9.0 mph 18.0 mph 51% 0.00 in
22:29 25.8 °F 10.2 °F 30.02 in SSW 10.0 mph 18.0 mph 51% 0.00 in
22:34 25.8 °F 9.7 °F 30.01 in SW 11.0 mph 21.0 mph 50% 0.00 in
22:39 25.8 °F 9.7 °F 30.01 in SSW 9.0 mph 21.0 mph 50% 0.00 in
22:44 26.0 °F 9.4 °F 30.00 in SSW 10.0 mph 21.0 mph 49% 0.00 in
22:49 25.9 °F 8.9 °F 30.00 in SSW 11.0 mph 21.0 mph 48% 0.00 in
22:54 25.9 °F 8.9 °F 30.00 in SW 11.0 mph 24.0 mph 48% 0.00 in
22:59 26.1 °F 8.6 °F 30.00 in SSW 10.0 mph 24.0 mph 47% 0.00 in
23:04 26.1 °F 8.1 °F 30.00 in SSW 11.0 mph 20.0 mph 46% 0.00 in
23:09 26.2 °F 8.2 °F 29.99 in SSW 13.0 mph 20.0 mph 46% 0.00 in
23:14 26.2 °F 8.2 °F 29.99 in SSW 12.0 mph 21.0 mph 46% 0.00 in
23:19 26.3 °F 8.3 °F 29.99 in SSW 10.0 mph 23.0 mph 46% 0.00 in
23:24 26.5 °F 8.0 °F 29.99 in SSW 13.0 mph 26.0 mph 45% 0.00 in
23:29 26.4 °F 8.4 °F 29.99 in SSW 11.0 mph 26.0 mph 46% 0.00 in
23:34 26.4 °F 7.9 °F 29.99 in SSW 12.0 mph 22.0 mph 45% 0.00 in
23:39 26.4 °F 8.4 °F 29.98 in SSW 11.0 mph 21.0 mph 46% 0.00 in
23:44 26.4 °F 8.4 °F 29.98 in SSW 10.0 mph 22.0 mph 46% 0.00 in
23:49 26.6 °F 7.6 °F 29.98 in SSW 12.0 mph 25.0 mph 44% 0.00 in
23:54 26.5 °F 8.0 °F 29.98 in SSW 12.0 mph 25.0 mph 45% 0.00 in
23:59 26.7 °F 8.2 °F 29.98 in SSW 11.0 mph 23.0 mph 45% 0.00 in
Westford Weather
Compliments of Weather Underground

 
 
Current Radar Loop:

Copyright © WestfordWeather.net 2007-2014. All rights reserved.